This is the latest recevied weather packets stored in our database for station/object KC0UFP. If no packets are shown the sender has not sent any weather packets the latest 10 day(s).
| Time | Temp. | Humidity | Pressure | Rain* | Wind** | Luminosity | Snow |
|---|---|---|---|---|---|---|---|
| 1777843050 | 22.78° C | 33% | 1015.4 hPa | 0 mm | - | 676 W/m² | - |
| 1777842745 | 22.78° C | 33% | 1015.7 hPa | 0 mm | - | 691 W/m² | - |
| 1777842441 | 22.78° C | 33% | 1015.6 hPa | 0 mm | - | 707 W/m² | - |
| 1777842139 | 22.22° C | 32% | 1015.9 hPa | 0 mm | - | 724 W/m² | - |
| 1777841834 | 22.22° C | 32% | 1016 hPa | 0 mm | - | 742 W/m² | - |
| 1777841227 | 22.22° C | 32% | 1016.1 hPa | 0 mm | - | 773 W/m² | - |
| 1777840622 | 22.22° C | 33% | 1016.2 hPa | 0 mm | - | 803 W/m² | - |
| 1777840319 | 22.78° C | 33% | 1016.6 hPa | 0 mm | - | 819 W/m² | - |
| 1777840016 | 22.22° C | 31% | 1016.6 hPa | 0 mm | - | 833 W/m² | - |
| 1777839714 | 22.22° C | 31% | 1016.8 hPa | 0 mm | - | 847 W/m² | - |
| 1777839412 | 22.22° C | 32% | 1016.7 hPa | 0 mm | - | 862 W/m² | - |
| 1777838502 | 21.67° C | 34% | 1017 hPa | 0 mm | - | 896 W/m² | - |
| 1777838199 | 21.67° C | 32% | 1017.1 hPa | 0 mm | - | 907 W/m² | - |
| 1777837896 | 21.67° C | 34% | 1017.5 hPa | 0 mm | - | 916 W/m² | - |
| 1777837288 | 21.67° C | 37% | 1017.7 hPa | 0 mm | - | 936 W/m² | - |
| 1777836681 | 21.67° C | 36% | 1018 hPa | 0 mm | - | 953 W/m² | - |
| 1777835770 | 21.11° C | 37% | 1018.1 hPa | 0 mm | - | 980 W/m² | - |
| 1777835466 | 20.56° C | 37% | 1018.1 hPa | 0 mm | - | 986 W/m² | - |
| 1777834557 | 21.11° C | 38% | 1018.6 hPa | 0 mm | - | 999 W/m² | - |
| 1777833346 | 20° C | 38% | 1019 hPa | 0 mm | - | 1015 W/m² | - |
| 1777833043 | 20.56° C | 39% | 1018.8 hPa | 0 mm | - | 1016 W/m² | - |
| 1777831530 | 20° C | 40% | 1019.2 hPa | 0 mm | - | 1024 W/m² | - |
| 1777829710 | 19.44° C | 41% | 1020.1 hPa | 0 mm | - | 1023 W/m² | - |
| 1777828195 | 19.44° C | 41% | 1020.2 hPa | 0 mm | - | 1009 W/m² | - |
| 1777826073 | 18.33° C | 46% | 1020.7 hPa | 0 mm | - | 971 W/m² | - |
* Rain latest hour (hover to see other rain measurements)
** Current wind speed in m/s (hover to see current wind gust speed)